• Processing (Info)

  • MPEC 2016-P87 : 2016 PH38

    The following Minor Planet Electronic Circular may be linked-to from your own Web pages, but must not otherwise be redistributed electronically.

    A form allowing access to any MPEC is at the bottom of this page.


    Read MPEC 2016-P86 Read MPEC 2016-P88


    M.P.E.C. 2016-P87                                Issued 2016 Aug. 11, 15:08 UT
    
         The Minor Planet Electronic Circulars contain information on unusual
             minor planets and routine data on comets.  They are published
        on behalf of Division F of the International Astronomical Union by the
              Minor Planet Center, Smithsonian Astrophysical Observatory,
                              Cambridge, MA 02138, U.S.A.
    
                 Prepared using the Tamkin Foundation Computer Network
    
                                  MPC@CFA.HARVARD.EDU
                URL https://www.minorplanetcenter.net/    ISSN 1523-6714
    
                                       2016 PH38
    
    Observations:
         K16P38H* C2016 08 01.45155 23 01 23.268+19 09 27.57         21.8 wLEP087F51
         K16P38H  C2016 08 01.46314 23 01 21.485+19 09 09.60         22.2 wLEP087F51
         K16P38H  C2016 08 01.47476 23 01 19.669+19 08 51.59         22.0 wLEP087F51
         K16P38H KC2016 08 03.24131822 56 53.42 +18 21 52.7          22.1 VuEP087H21
         K16P38H KC2016 08 03.25275322 56 51.65 +18 21 34.1          22.1 VuEP087H21
         K16P38H KC2016 08 03.26816622 56 49.25 +18 21 09.6          22.0 VuEP087H21
         K16P38H KC2016 08 07.33383322 46 34.30 +16 27 26.2          22.1 VuEP087H21
         K16P38H KC2016 08 07.34560822 46 32.48 +16 27 05.7          22.0 VuEP087H21
         K16P38H KC2016 08 07.35535522 46 30.98 +16 26 48.8          21.7 VuEP087H21
         K16P38H KC2016 08 07.42988 22 46 19.69 +16 24 41.9          21.1 RoEP087291
         K16P38H KC2016 08 07.43454 22 46 18.96 +16 24 33.2          21.1 RoEP087291
         K16P38H KC2016 08 07.43916 22 46 18.24 +16 24 25.0                oEP087291
         K16P38H KC2016 08 11.26206922 36 48.48 +14 31 29.9          21.8 VuEP087H21
         K16P38H KC2016 08 11.26977622 36 47.32 +14 31 16.2          22.1 VuEP087H21
         K16P38H KC2016 08 11.27768922 36 46.12 +14 31 01.9          22.1 VuEP087H21
    
    Observer details:
    291 LPL/Spacewatch II.  Observer J. V. Scotti.  1.8-m f/2.7 reflector + CCD.
    F51 Pan-STARRS 1, Haleakala.  Observers B. Gibson, T. Goggia, N. Primak,
        A. Schultz, M. Willman.  Measurers K. Chambers, S. Chastel, L. Denneau,
        H. Flewelling, M. Huber, E. Lilly, E. Magnier, R. Wainscoat, C. Waters,
        R. Weryk.  1.8-m Ritchey-Chretien + CCD.
    H21 Astronomical Research Observatory, Westfield.  Observer R. Holmes.
        Measurers S. Foglia, L. Buzzi, T. Linder, R. Holmes.  0.76-m f/3.0
        astrograph + CCD, 0.81-m f/4.0 astrograph + CCD, 1.3-m f/4.0 astrograph
        + CCD.
    
    Orbital elements:
    2016 PH38                                                Earth MOID = 0.2587 AU
    Epoch 2016 July 31.0 TT = JDT 2457600.5                 MPC
    M  35.97765              (2000.0)            P               Q
    n   0.39873703     Peri.   18.55693     -0.94343057     +0.33154332
    a   1.8281494      Node   180.84116     -0.32878173     -0.93706683
    e   0.7151875      Incl.   16.69258     -0.04291067     -0.10947501
    P   2.47           H   20.6           G   0.15           U   7
    Residuals in seconds of arc
    160801 F51  0.1-  0.0     160803 H21  0.1+  0.2-    160807 291  0.0   0.0
    160801 F51  0.1+  0.1+    160807 H21  0.1-  0.0     160807 291  0.1-  0.2-
    160801 F51  0.0   0.1+    160807 H21  0.0   0.0     160811 H21  0.1-  0.1-
    160803 H21  0.2+  0.4-    160807 H21  0.1+  0.0     160811 H21  0.0   0.0
    160803 H21  0.2+  0.6-    160807 291  0.1+  0.6+    160811 H21  0.0   0.0
    
    Ephemeris:
    2016 PH38                a,e,i = 1.83, 0.72, 17                  q = 0.5207
    Date    TT    R. A. (2000) Decl.     Delta      r     Elong.  Phase     V
    2016 07 12    23 47 18.3 +25 59 32   0.6313  1.2915   100.6    50.7    22.0
    ...
    2016 07 27    23 14 48.7 +21 23 03   0.6418  1.4615   122.1    36.1    21.9
    ...
    2016 08 04    22 54 58.4 +18 01 22   0.6573  1.5472   134.4    28.0    21.9
    ...
    2016 08 10    22 39 55.2 +15 09 23   0.6772  1.6093   143.5    22.0    21.8
    2016 08 11    22 37 27.1 +14 39 29   0.6814  1.6194   145.0    21.0    21.8
    2016 08 12    22 35 00.1 +14 09 21   0.6858  1.6295   146.4    20.1    21.8
    ...
    2016 08 18    22 20 52.5 +11 05 29   0.7180  1.6892   154.6    14.9    21.8
    ...
    2016 08 26    22 04 10.5 +07 03 09   0.7768  1.7660   162.1    10.1    21.9
    ...
    2016 09 10    21 41 38.4 +00 28 00   0.9363  1.9019   156.3    12.3    22.6
    
    A. U. Tomatic                (C) Copyright 2016 MPC           M.P.E.C. 2016-P87
    

    Read MPEC 2016-P86 Read MPEC 2016-P88


    MPEC number:

    Enter an MPEC number in one of the following forms:

    • 1997-B01 (the full form)
    • J97B01 (the packed version of the full form)
    • B01 (the abbreviated form)